Location: Gellin
(53.4498°N, 14.3207°E)
Time: 23:35:46
(UTC+00:00)

SL-16 R/B - Pass Details

Date: 03 March 2021
Orbit: 842 x 846 km, 71.0° (Epoch: 12 April)

Event Time Altitude Azimuth Distance (km) Brightness Sun altitude
Rises 19:33:40 0° 248° (WSW) 3,400 5.9 -25.4°
Reaches altitude 10° 19:36:24 10° 258° (WSW) 2,468 5.3 -25.7°
Maximum altitude 19:41:24 31° 320° (NW) 1,446 3.9 -26.4°
Drops below altitude 10° 19:46:26 10° 23° (NNE) 2,480 4.7 -27.1°
Sets 19:49:11 0° 33° (NNE) 3,419 5.3 -27.4°
